Вернуться в каталог

SL-16 DEB

АктивенLEO
NORAD 22370·DEBRIS·🇷🇺 Russia

Запущен Dec 25, 1992 с Baikonur Cosmodrome

Loading…

Ближайшие Пролёты (ближайшие 24 часа)

TLE

СвежийSource: Space-Track

Эпоха: Sep 14, 2026, 09:27 UTC

1 22370U 92093BK  26257.39405894  .00000471  00000-0  29292-3 0  9990
2 22370  70.9746  47.8214 0106194  78.1708 309.9016 14.07216763725028

Отслеживайте SL-16 DEB в реальном времени с AllMySat

Download on the App Store